{"data":{"norad_id":68344,"intl_designator":"2026-059Z","name":"STARLINK-36380","alt_names":[],"object_type":"PAYLOAD","status":"ACTIVE","operator":null,"country":"US","launch_date":"2026-03-22","launch_site_code":"AFETR","launch_vehicle":null,"mission":null,"orbit_class":"UNKNOWN","rcs_meters":null,"size_class":null,"mass_kg":null,"dimensions":null,"purposes":["comms"],"wikipedia_slug":null,"has_3d_model":false,"image_url":null,"decayed_at":null,"tle_current":{"epoch":"2026-09-20T04:22:18.050304Z","epoch_age_seconds":75912,"freshness":"FRESH","line1":"1 68344U 26059Z   26263.18215336  .00011307  00000+0  34531-3 0  9995","line2":"2 68344  53.1593 164.8449 0000951  88.2251 271.8860 15.34395438 27950","mean_motion":15.34395438,"eccentricity":9.51e-5,"inclination_deg":53.1593,"raan_deg":164.8449,"arg_perigee_deg":88.2251,"mean_anomaly_deg":271.886,"bstar":0.00034531,"rev_number":2795,"period_min":93.848037105543,"perigee_km":462.06623426977,"apogee_km":463.36736466243,"semimajor_km":6840.8537994661,"source":"CELESTRAK","updated_at":"2026-09-20T09:00:43.889653Z"}}}